User: anonymous   Login
Location: PACMO
(41.3967°N, 90.3760°W)
Time: 03:19:57
(UTC-05:00)
Language:

NOAA 19 - Orbit

View from above orbital plane
View from above orbital plane
View from above satellite
View from above satellite

Ground track
Ground track

The orbit data is extracted from the following two-line orbital elements,

1 33591U 09005A   16273.45842529  .00000136  00000-0  98858-4 0  9995
2 33591  99.0524 231.1467 0013033 287.6063  72.3685 14.12110734393851
Epoch (UTC): 29 September 2016 11:00:07
Eccentricity: 0.0013033
inclination: 99.0524°
perigee height: 843 km
apogee height: 861 km
right ascension of ascending node: 231.1467°
argument of perigee: 287.6063°
revolutions per day: 14.12110734
mean anomaly at epoch: 72.3685°
orbit number at epoch: 39385

The dashed part of the orbit path shows where the satellite is in the earth's shadow,  

DLR